﻿_id,日時,平均風速(m/s),平均風向,最大瞬間風速(m/s),最大風速時風向,気温(℃),湿度(%),10分間移動積算雨量(mm),1時間移動積算雨量(mm),日雨量(mm),累計雨量(mm)
1,2021-05-03T00:00:00,0.2,静穏,0.5,西,8.2,91.7,0,0,2.5,3.5
2,2021-05-03T00:01:00,0.2,静穏,0.5,西,8.3,92.2,0,0,0,3.5
3,2021-05-03T00:02:00,0.2,静穏,0.5,西,8.3,92.3,0,0,0,3.5
4,2021-05-03T00:03:00,0.2,静穏,0.6,西北西,8.2,91.8,0,0,0,3.5
5,2021-05-03T00:04:00,0.3,西北西,0.8,北西,8.3,91.7,0,0,0,3.5
6,2021-05-03T00:05:00,0.4,西北西,0.9,西北西,8.2,91.8,0,0,0,3.5
7,2021-05-03T00:06:00,0.4,西北西,0.9,西北西,8.2,91.6,0,0,0,3.5
8,2021-05-03T00:07:00,0.4,西北西,0.9,西北西,8.2,91.8,0,0,0,3.5
9,2021-05-03T00:08:00,0.4,西北西,0.9,西北西,8.2,91.8,0,0,0,3.5
10,2021-05-03T00:09:00,0.4,西北西,0.9,西北西,8.3,92.2,0,0,0,3.5
11,2021-05-03T00:10:00,0.4,西北西,0.9,西北西,8.4,92.3,0,0,0,3.5
12,2021-05-03T00:11:00,0.4,西北西,0.9,西北西,8.3,92.2,0,0,0,3.5
13,2021-05-03T00:12:00,0.4,西北西,0.9,西北西,8.2,91.5,0,0,0,3.5
14,2021-05-03T00:13:00,0.4,西北西,0.9,西北西,8.2,91.5,0,0,0,3.5
15,2021-05-03T00:14:00,0.3,西北西,0.9,西北西,8.1,91.6,0,0,0,3.5
16,2021-05-03T00:15:00,0.3,西北西,0.8,西北西,8.2,92,0,0,0,3.5
17,2021-05-03T00:16:00,0.3,西北西,0.8,西北西,8.2,92.1,0,0,0,3.5
18,2021-05-03T00:17:00,0.3,西北西,0.8,西北西,8,91.6,0,0,0,3.5
19,2021-05-03T00:18:00,0.2,静穏,0.4,西北西,8,91.6,0,0,0,3.5
20,2021-05-03T00:19:00,0.2,静穏,0.4,西北西,7.9,91.7,0,0,0,3.5
21,2021-05-03T00:20:00,0.2,静穏,0.4,西北西,7.9,91.8,0,0,0,3.5
22,2021-05-03T00:21:00,0.2,静穏,0.4,西北西,8.1,92.4,0,0,0,3.5
23,2021-05-03T00:22:00,0.2,静穏,0.4,西北西,8.3,92.9,0,0,0,3.5
24,2021-05-03T00:23:00,0.2,静穏,0.4,西北西,8.1,92.9,0,0,0,3.5
25,2021-05-03T00:24:00,0.2,静穏,0.4,西北西,8.1,92.2,0,0,0,3.5
26,2021-05-03T00:25:00,0.2,静穏,0.4,西北西,8.2,92.3,0,0,0,3.5
27,2021-05-03T00:26:00,0.2,静穏,0.7,北北東,8.2,92.7,0,0,0,3.5
28,2021-05-03T00:27:00,0.3,北西,0.8,北北東,8.3,93.1,0,0,0,3.5
29,2021-05-03T00:28:00,0.3,北北西,0.8,北北東,8.3,92.8,0,0,0,3.5
30,2021-05-03T00:29:00,0.4,北,0.8,北北東,8.3,92.8,0,0,0,3.5
31,2021-05-03T00:30:00,0.4,北,0.8,北北東,8.4,92.7,0,0,0,3.5
32,2021-05-03T00:31:00,0.4,北北東,0.8,北北東,8.3,92.6,0,0,0,3.5
33,2021-05-03T00:32:00,0.4,北北東,0.8,北北東,8.1,91.5,0,0,0,3.5
34,2021-05-03T00:33:00,0.5,北東,0.8,北北東,8,91.1,0,0,0,3.5
35,2021-05-03T00:34:00,0.5,北東,0.8,北北東,8,91.5,0,0,0,3.5
36,2021-05-03T00:35:00,0.5,東北東,0.8,北北東,8.1,91.8,0,0,0,3.5
37,2021-05-03T00:36:00,0.5,東北東,0.9,東,8.2,92.2,0,0,0,3.5
38,2021-05-03T00:37:00,0.5,東北東,1.2,東,8.2,92.5,0,0,0,3.5
39,2021-05-03T00:38:00,0.5,東,1.2,東,8,91.8,0,0,0,3.5
40,2021-05-03T00:39:00,0.6,東,1.3,東,8.2,91.8,0,0,0,3.5
41,2021-05-03T00:40:00,0.6,東,1.3,東,8.2,92.3,0,0,0,3.5
42,2021-05-03T00:41:00,0.7,東,1.5,東,8.3,92.5,0,0,0,3.5
43,2021-05-03T00:42:00,0.8,東,1.5,東,8.2,92.4,0,0,0,3.5
44,2021-05-03T00:43:00,0.9,東,1.5,東,8.3,92.4,0,0,0,3.5
45,2021-05-03T00:44:00,0.9,東,1.5,東,8.3,92.7,0,0,0,3.5
46,2021-05-03T00:45:00,0.9,東,1.5,東,8.3,92.6,0,0,0,3.5
47,2021-05-03T00:46:00,0.9,東,1.5,東,8.4,92.5,0,0,0,3.5
48,2021-05-03T00:47:00,0.9,東,1.5,東,8.2,92.3,0,0,0,3.5
49,2021-05-03T00:48:00,0.8,東,1.5,東,8.3,92.1,0,0,0,3.5
50,2021-05-03T00:49:00,0.7,東,1.5,東,8.3,92.5,0,0,0,3.5
51,2021-05-03T00:50:00,0.7,東北東,1.5,東,8.2,92,0,0,0,3.5
52,2021-05-03T00:51:00,0.6,東北東,1.3,東,8.2,91.8,0,0,0,3.5
53,2021-05-03T00:52:00,0.5,東北東,1.3,東,8.2,92.2,0,0,0,3.5
54,2021-05-03T00:53:00,0.4,北東,1.3,東,8,91.8,0,0,0,3.5
55,2021-05-03T00:54:00,0.3,北東,1,東,7.9,91.5,0,0,0,3.5
56,2021-05-03T00:55:00,0.3,北北東,0.7,北,7.9,91.9,0,0,0,3.5
57,2021-05-03T00:56:00,0.2,静穏,0.7,北,8,92.6,0,0,0,3.5
58,2021-05-03T00:57:00,0.2,静穏,0.7,北,7.9,92.7,0,0,0,3.5
59,2021-05-03T00:58:00,0.2,静穏,0.7,北,7.9,92.6,0,0,0,3.5
60,2021-05-03T00:59:00,0.1,静穏,0.7,北,7.9,92.8,0,0,0,3.5
61,2021-05-03T01:00:00,0.1,静穏,0.4,北,7.9,92.8,0,0,0,3.5
62,2021-05-03T01:01:00,0.1,静穏,0.3,西北西,7.9,92.9,0,0,0,3.5
63,2021-05-03T01:02:00,0.1,静穏,0.3,西北西,8.1,93.4,0,0,0,3.5
64,2021-05-03T01:03:00,0.1,静穏,0.3,西北西,7.9,93.6,0,0,0,3.5
65,2021-05-03T01:04:00,0.1,静穏,0.5,東南東,8,93.1,0,0,0,3.5
66,2021-05-03T01:05:00,0.1,静穏,0.5,東南東,8,93.5,0,0,0,3.5
67,2021-05-03T01:06:00,0.2,静穏,0.5,東南東,7.9,93.3,0,0,0,3.5
68,2021-05-03T01:07:00,0.2,静穏,0.5,東南東,8,93.1,0,0,0,3.5
69,2021-05-03T01:08:00,0.2,静穏,0.9,東南東,7.8,93,0,0,0,3.5
70,2021-05-03T01:09:00,0.3,東南東,0.9,東南東,7.8,92.7,0,0,0,3.5
71,2021-05-03T01:10:00,0.3,東南東,1,東南東,7.8,92.8,0,0,0,3.5
72,2021-05-03T01:11:00,0.4,東南東,1,東南東,7.9,93.3,0,0,0,3.5
73,2021-05-03T01:12:00,0.4,東南東,1,東南東,7.8,93.3,0,0,0,3.5
74,2021-05-03T01:13:00,0.5,東南東,1,東南東,7.8,93.3,0,0,0,3.5
75,2021-05-03T01:14:00,0.5,東南東,1,東南東,7.9,93.5,0,0,0,3.5
76,2021-05-03T01:15:00,0.5,東南東,1,東南東,7.8,93.5,0,0,0,3.5
77,2021-05-03T01:16:00,0.5,東南東,1,東南東,7.8,93.2,0,0,0,3.5
78,2021-05-03T01:17:00,0.5,東南東,1,東南東,7.8,93.4,0,0,0,3.5
79,2021-05-03T01:18:00,0.6,東南東,1.2,東北東,7.8,93.4,0,0,0,3.5
80,2021-05-03T01:19:00,0.6,東南東,1.2,東北東,7.9,93.5,0,0,0,3.5
81,2021-05-03T01:20:00,0.6,東,1.2,東北東,7.8,93.5,0,0,0,3.5
82,2021-05-03T01:21:00,0.6,東,1.2,東北東,8,93.9,0,0,0,3.5
83,2021-05-03T01:22:00,0.6,東,1.2,東北東,8,94,0,0,0,3.5
84,2021-05-03T01:23:00,0.6,東,1.2,東北東,8,93.9,0,0,0,3.5
85,2021-05-03T01:24:00,0.6,東北東,1.2,東北東,8,93.8,0,0,0,3.5
86,2021-05-03T01:25:00,0.5,東北東,1.2,東北東,8,93.6,0,0,0,3.5
87,2021-05-03T01:26:00,0.5,東北東,1.2,東北東,8,93.7,0,0,0,3.5
88,2021-05-03T01:27:00,0.5,北東,1.2,東北東,7.9,93.4,0,0,0,3.5
89,2021-05-03T01:28:00,0.5,北東,1.1,東北東,8,93.6,0,0,0,3.5
90,2021-05-03T01:29:00,0.4,北北東,0.8,北北東,7.7,93.1,0,0,0,3.5
91,2021-05-03T01:30:00,0.4,北北東,0.8,北北東,7.6,92.5,0,0,0,3.5
92,2021-05-03T01:31:00,0.4,北北東,0.8,北北東,7.7,92.8,0,0,0,3.5
93,2021-05-03T01:32:00,0.3,北北東,0.8,北北東,7.5,92.6,0,0,0,3.5
94,2021-05-03T01:33:00,0.3,北北東,0.8,北北東,7.4,92.4,0,0,0,3.5
95,2021-05-03T01:34:00,0.2,静穏,0.8,北北東,7.4,92.8,0,0,0,3.5
96,2021-05-03T01:35:00,0.2,静穏,0.8,北北東,7.5,93.3,0,0,0,3.5
97,2021-05-03T01:36:00,0.2,静穏,0.8,北北東,7.5,93.6,0,0,0,3.5
98,2021-05-03T01:37:00,0.1,静穏,0.5,北北東,7.5,93.7,0,0,0,3.5
99,2021-05-03T01:38:00,0.1,静穏,0.4,東南東,7.5,93.9,0,0,0,3.5
100,2021-05-03T01:39:00,0.1,静穏,0.4,東南東,7.6,93.9,0,0,0,3.5
101,2021-05-03T01:40:00,0.1,静穏,0.4,東南東,7.5,94.1,0,0,0,3.5
102,2021-05-03T01:41:00,0.1,静穏,0.4,東南東,7.5,94,0,0,0,3.5
103,2021-05-03T01:42:00,0.2,静穏,0.4,東南東,7.6,94.1,0,0,0,3.5
104,2021-05-03T01:43:00,0.2,静穏,0.6,東,7.7,94.4,0,0,0,3.5
105,2021-05-03T01:44:00,0.2,静穏,0.6,東,7.7,94.7,0,0,0,3.5
106,2021-05-03T01:45:00,0.2,静穏,0.6,東,7.7,94.6,0,0,0,3.5
107,2021-05-03T01:46:00,0.2,静穏,0.6,東,7.7,94.5,0,0,0,3.5
108,2021-05-03T01:47:00,0.2,静穏,0.6,東,7.6,94,0,0,0,3.5
109,2021-05-03T01:48:00,0.2,静穏,0.6,東,7.5,93.7,0,0,0,3.5
110,2021-05-03T01:49:00,0.3,北東,0.6,東,7.5,93.8,0,0,0,3.5
111,2021-05-03T01:50:00,0.3,北東,0.7,北北東,7.6,94.2,0,0,0,3.5
112,2021-05-03T01:51:00,0.3,北東,0.7,北北東,7.7,94.4,0,0,0,3.5
113,2021-05-03T01:52:00,0.4,北東,0.9,北東,7.7,94.7,0,0,0,3.5
114,2021-05-03T01:53:00,0.4,北東,0.9,北東,7.7,94.3,0,0,0,3.5
115,2021-05-03T01:54:00,0.5,北東,1,北東,7.8,94.6,0,0,0,3.5
116,2021-05-03T01:55:00,0.5,北北東,1,北東,7.7,94.7,0,0,0,3.5
117,2021-05-03T01:56:00,0.5,北北東,1,北東,7.8,94.3,0,0,0,3.5
118,2021-05-03T01:57:00,0.5,北北東,1,北東,7.8,94.5,0,0,0,3.5
119,2021-05-03T01:58:00,0.5,北東,1,北東,7.7,94.3,0,0,0,3.5
120,2021-05-03T01:59:00,0.4,北東,1,北東,7.6,93.9,0,0,0,3.5
121,2021-05-03T02:00:00,0.4,東北東,1,北東,7.4,93.2,0,0,0,3.5
122,2021-05-03T02:01:00,0.4,東北東,1,北東,7.3,93,0,0,0,3.5
123,2021-05-03T02:02:00,0.4,東北東,1,北東,7.3,93,0,0,0,3.5
124,2021-05-03T02:03:00,0.3,東,1,北東,7.3,93.2,0,0,0,3.5
125,2021-05-03T02:04:00,0.3,南東,0.9,北東,7.3,93.6,0,0,0,3.5
126,2021-05-03T02:05:00,0.3,南,0.6,南南西,7.2,93.7,0,0,0,3.5
127,2021-05-03T02:06:00,0.3,南,0.6,南南西,7.2,93.7,0,0,0,3.5
128,2021-05-03T02:07:00,0.3,南南西,0.6,南南西,7.3,94,0,0,0,3.5
129,2021-05-03T02:08:00,0.3,南南西,0.6,南南西,7.3,94.3,0,0,0,3.5
130,2021-05-03T02:09:00,0.3,南南西,0.6,南南西,7.3,94.3,0,0,0,3.5
131,2021-05-03T02:10:00,0.3,南,0.6,南南西,7.2,94.3,0,0,0,3.5
132,2021-05-03T02:11:00,0.3,南,0.6,南南西,7.2,94,0,0,0,3.5
133,2021-05-03T02:12:00,0.3,南南東,0.6,南南西,7.3,94.4,0,0,0,3.5
134,2021-05-03T02:13:00,0.3,南南東,0.7,東北東,7.3,94.7,0,0,0,3.5
135,2021-05-03T02:14:00,0.3,南東,0.8,東北東,7.3,94.6,0,0,0,3.5
136,2021-05-03T02:15:00,0.3,東南東,0.8,東北東,7.2,94.4,0,0,0,3.5
137,2021-05-03T02:16:00,0.3,東南東,0.8,東北東,7.4,94.3,0,0,0,3.5
138,2021-05-03T02:17:00,0.3,東,0.8,東北東,7.5,95.2,0,0,0,3.5
139,2021-05-03T02:18:00,0.3,東,0.8,東北東,7.5,94.8,0,0,0,3.5
140,2021-05-03T02:19:00,0.3,東,0.8,東北東,7.3,94.4,0,0,0,3.5
141,2021-05-03T02:20:00,0.3,東,0.8,東北東,7.3,94.2,0,0,0,3.5
142,2021-05-03T02:21:00,0.3,東,0.8,東北東,7.3,94.2,0,0,0,3.5
143,2021-05-03T02:22:00,0.3,東,0.8,東北東,7.2,94,0,0,0,3.5
144,2021-05-03T02:23:00,0.3,東,0.8,東北東,7.1,93.8,0,0,0,3.5
145,2021-05-03T02:24:00,0.3,東北東,0.6,東南東,7.1,93.8,0,0,0,3.5
146,2021-05-03T02:25:00,0.2,静穏,0.6,東南東,7,93.8,0,0,0,3.5
147,2021-05-03T02:26:00,0.2,静穏,0.6,東南東,7.1,94.1,0,0,0,3.5
148,2021-05-03T02:27:00,0.2,静穏,0.6,東南東,7,94.2,0,0,0,3.5
149,2021-05-03T02:28:00,0.3,東,0.8,南南東,7,94.1,0,0,0,3.5
150,2021-05-03T02:29:00,0.3,東,0.8,南南東,7,94.1,0,0,0,3.5
151,2021-05-03T02:30:00,0.3,東南東,0.8,南南東,7,94.2,0,0,0,3.5
152,2021-05-03T02:31:00,0.4,東南東,0.8,南南東,7,94.5,0,0,0,3.5
153,2021-05-03T02:32:00,0.4,東南東,0.8,南南東,7,94.4,0,0,0,3.5
154,2021-05-03T02:33:00,0.4,南東,0.8,南南東,7,94.4,0,0,0,3.5
155,2021-05-03T02:34:00,0.4,南東,0.8,南南東,6.9,94.3,0,0,0,3.5
156,2021-05-03T02:35:00,0.3,南東,0.8,南南東,6.9,94.4,0,0,0,3.5
157,2021-05-03T02:36:00,0.3,南東,0.8,南南東,6.9,94.3,0,0,0,3.5
158,2021-05-03T02:37:00,0.3,南東,0.8,南南東,6.9,94.3,0,0,0,3.5
159,2021-05-03T02:38:00,0.2,静穏,0.7,南南東,6.9,94.3,0,0,0,3.5
160,2021-05-03T02:39:00,0.2,静穏,0.6,南東,7,94.8,0,0,0,3.5
161,2021-05-03T02:40:00,0.2,静穏,0.5,東南東,7.1,95.2,0,0,0,3.5
162,2021-05-03T02:41:00,0.2,静穏,0.8,東南東,6.9,94.8,0,0,0,3.5
163,2021-05-03T02:42:00,0.2,静穏,0.9,東南東,6.9,94.5,0,0,0,3.5
164,2021-05-03T02:43:00,0.2,静穏,0.9,東南東,6.8,94.3,0,0,0,3.5
165,2021-05-03T02:44:00,0.2,静穏,0.9,東南東,6.7,93.8,0,0,0,3.5
166,2021-05-03T02:45:00,0.3,東南東,1,東,6.7,93.9,0,0,0,3.5
167,2021-05-03T02:46:00,0.3,東南東,1,東,6.7,94.3,0,0,0,3.5
168,2021-05-03T02:47:00,0.4,東南東,1,東,6.8,94.5,0,0,0,3.5
169,2021-05-03T02:48:00,0.4,東南東,1,東,6.8,94.9,0,0,0,3.5
170,2021-05-03T02:49:00,0.4,東南東,1,東,6.8,94.9,0,0,0,3.5
171,2021-05-03T02:50:00,0.5,東南東,1.7,東,6.9,95,0,0,0,3.5
172,2021-05-03T02:51:00,0.5,東南東,1.7,東,6.9,95,0,0,0,3.5
173,2021-05-03T02:52:00,0.5,東南東,1.7,東,6.8,94.8,0,0,0,3.5
174,2021-05-03T02:53:00,0.6,東,1.7,東,6.8,94.4,0,0,0,3.5
175,2021-05-03T02:54:00,0.7,東,1.7,東,6.7,94.6,0,0,0,3.5
176,2021-05-03T02:55:00,0.7,東,1.7,東,6.8,94.5,0,0,0,3.5
177,2021-05-03T02:56:00,0.7,東,1.7,東,6.7,94.4,0,0,0,3.5
178,2021-05-03T02:57:00,0.7,東南東,1.7,東,6.6,94.2,0,0,0,3.5
179,2021-05-03T02:58:00,0.7,東南東,1.7,東,6.6,94.1,0,0,0,3.5
180,2021-05-03T02:59:00,0.7,東南東,1.7,東,6.7,94.5,0,0,0,3.5
181,2021-05-03T03:00:00,0.7,東南東,1.6,東,6.7,94.7,0,0,0,3.5
182,2021-05-03T03:01:00,0.6,東南東,1.4,南東,6.8,94.8,0,0,0,3.5
183,2021-05-03T03:02:00,0.7,南東,1.4,南東,6.8,95.1,0,0,0,3.5
184,2021-05-03T03:03:00,0.6,南東,1.4,南東,6.7,94.6,0,0,0,3.5
185,2021-05-03T03:04:00,0.6,南南東,1.4,南東,6.6,94.1,0,0,0,3.5
186,2021-05-03T03:05:00,0.5,南南東,1.4,南東,6.7,94.5,0,0,0,3.5
187,2021-05-03T03:06:00,0.4,南南東,1.4,南東,6.6,94.7,0,0,0,3.5
188,2021-05-03T03:07:00,0.4,南,1.4,南東,6.6,94.3,0,0,0,3.5
189,2021-05-03T03:08:00,0.4,南,1.4,南東,6.7,94.6,0,0,0,3.5
190,2021-05-03T03:09:00,0.3,南,1.4,南東,6.8,95.1,0,0,0,3.5
191,2021-05-03T03:10:00,0.2,静穏,1.2,南南東,6.9,95.2,0,0,0,3.5
192,2021-05-03T03:11:00,0.2,静穏,1.2,南南東,6.9,95.2,0,0,0,3.5
193,2021-05-03T03:12:00,0.2,静穏,1,東,6.7,94.5,0,0,0,3.5
194,2021-05-03T03:13:00,0.3,南,1.2,東,6.6,94.4,0,0,0,3.5
195,2021-05-03T03:14:00,0.3,南南東,1.3,東,6.5,94.2,0,0,0,3.5
196,2021-05-03T03:15:00,0.4,南東,1.3,東,6.6,93.9,0,0,0,3.5
197,2021-05-03T03:16:00,0.5,南東,1.3,東,6.6,94.5,0,0,0,3.5
198,2021-05-03T03:17:00,0.5,東南東,1.3,東,6.6,94.4,0,0,0,3.5
199,2021-05-03T03:18:00,0.6,東南東,1.3,東,6.6,94.3,0,0,0,3.5
200,2021-05-03T03:19:00,0.6,東,1.3,東,6.6,94.4,0,0,0,3.5
201,2021-05-03T03:20:00,0.7,東,1.3,東,6.6,94.5,0,0,0,3.5
202,2021-05-03T03:21:00,0.7,東,1.3,東,6.5,94,0,0,0,3.5
203,2021-05-03T03:22:00,0.7,東,1.3,東,6.5,94,0,0,0,3.5
204,2021-05-03T03:23:00,0.6,東,1.3,東,6.6,94.4,0,0,0,3.5
205,2021-05-03T03:24:00,0.6,東,1.1,東南東,6.6,94.6,0,0,0,3.5
206,2021-05-03T03:25:00,0.6,東,1.1,東南東,6.6,94.5,0,0,0,3.5
207,2021-05-03T03:26:00,0.6,東,1.2,東,6.6,94.1,0,0,0,3.5
208,2021-05-03T03:27:00,0.7,東,1.5,東,6.7,94.5,0,0,0,3.5
209,2021-05-03T03:28:00,0.7,東,1.5,東,6.6,94.2,0,0,0,3.5
210,2021-05-03T03:29:00,0.7,東,1.5,東,6.6,94.2,0,0,0,3.5
211,2021-05-03T03:30:00,0.6,東,1.5,東,6.5,94,0,0,0,3.5
212,2021-05-03T03:31:00,0.6,東,1.5,東,6.4,93.4,0,0,0,3.5
213,2021-05-03T03:32:00,0.7,東,1.5,東,6.3,93.5,0,0,0,3.5
214,2021-05-03T03:33:00,0.7,東,1.5,東,6.5,94.1,0,0,0,3.5
215,2021-05-03T03:34:00,0.7,東南東,1.5,東,6.5,94.1,0,0,0,3.5
216,2021-05-03T03:35:00,0.7,東,1.5,東,6.5,94.4,0,0,0,3.5
217,2021-05-03T03:36:00,0.7,東,1.5,東,6.4,93.8,0,0,0,3.5
218,2021-05-03T03:37:00,0.6,東南東,1.3,東南東,6.3,93.7,0,0,0,3.5
219,2021-05-03T03:38:00,0.6,東南東,1.3,東南東,6.3,93.7,0,0,0,3.5
220,2021-05-03T03:39:00,0.6,東南東,1.3,東南東,6.3,93.8,0,0,0,3.5
221,2021-05-03T03:40:00,0.6,東,1.3,東南東,6.2,93.8,0,0,0,3.5
222,2021-05-03T03:41:00,0.6,東南東,1.3,東南東,6.1,93.5,0,0,0,3.5
223,2021-05-03T03:42:00,0.5,東,1.3,東南東,6.2,93.5,0,0,0,3.5
224,2021-05-03T03:43:00,0.5,東南東,1.3,東南東,6.3,94.1,0,0,0,3.5
225,2021-05-03T03:44:00,0.5,東南東,1.3,東南東,6.3,94.3,0,0,0,3.5
226,2021-05-03T03:45:00,0.6,東南東,1.3,東南東,6.3,94.2,0,0,0,3.5
227,2021-05-03T03:46:00,0.5,東南東,1.2,東南東,6.3,94.3,0,0,0,3.5
228,2021-05-03T03:47:00,0.5,東南東,1.2,東南東,6.3,94.2,0,0,0,3.5
229,2021-05-03T03:48:00,0.5,東南東,1.2,東南東,6.2,94,0,0,0,3.5
230,2021-05-03T03:49:00,0.5,東南東,1.4,東,6.2,94,0,0,0,3.5
231,2021-05-03T03:50:00,0.6,東,1.4,東,6.1,93.7,0,0,0,3.5
232,2021-05-03T03:51:00,0.7,東,1.4,東,6.2,93.8,0,0,0,3.5
233,2021-05-03T03:52:00,0.8,東,1.4,東,6.1,93.9,0,0,0,3.5
234,2021-05-03T03:53:00,0.7,東,1.4,東,6.2,94,0,0,0,3.5
235,2021-05-03T03:54:00,0.7,東,1.4,東,6.2,94.3,0,0,0,3.5
236,2021-05-03T03:55:00,0.6,東,1.4,東,6.3,94.5,0,0,0,3.5
237,2021-05-03T03:56:00,0.6,東,1.4,東,6.1,94.1,0,0,0,3.5
238,2021-05-03T03:57:00,0.5,東南東,1.4,東,6.1,93.9,0,0,0,3.5
239,2021-05-03T03:58:00,0.5,東,1.4,東,6.1,94.1,0,0,0,3.5
240,2021-05-03T03:59:00,0.4,東,1.3,東,6.1,94.1,0,0,0,3.5
241,2021-05-03T04:00:00,0.3,東南東,1.2,東,6,93.8,0,0,0,3.5
242,2021-05-03T04:01:00,0.2,静穏,0.9,東北東,6,94,0,0,0,3.5
243,2021-05-03T04:02:00,0.2,静穏,0.7,東北東,6,94.1,0,0,0,3.5
244,2021-05-03T04:03:00,0.1,静穏,0.7,東北東,5.9,93.9,0,0,0,3.5
245,2021-05-03T04:04:00,0.1,静穏,0.4,南東,5.9,93.8,0,0,0,3.5
246,2021-05-03T04:05:00,0.1,静穏,0.4,南東,5.8,93.8,0,0,0,3.5
247,2021-05-03T04:06:00,0.2,静穏,0.5,南,5.8,93.9,0,0,0,3.5
248,2021-05-03T04:07:00,0.2,静穏,0.5,南,5.8,93.9,0,0,0,3.5
249,2021-05-03T04:08:00,0.2,静穏,0.5,南,5.8,94.4,0,0,0,3.5
250,2021-05-03T04:09:00,0.3,南南東,0.6,南南東,5.8,94.2,0,0,0,3.5
251,2021-05-03T04:10:00,0.3,南南東,0.6,南南東,5.8,94.4,0,0,0,3.5
252,2021-05-03T04:11:00,0.3,南南東,0.7,南南東,5.9,94.8,0,0,0,3.5
253,2021-05-03T04:12:00,0.4,南南東,0.7,南南東,5.8,94.6,0,0,0,3.5
254,2021-05-03T04:13:00,0.4,南南東,0.7,南南東,5.9,94.6,0,0,0,3.5
255,2021-05-03T04:14:00,0.4,南南東,0.7,南南東,5.8,94.6,0,0,0,3.5
256,2021-05-03T04:15:00,0.4,南南東,0.7,南南東,5.8,94.5,0,0,0,3.5
257,2021-05-03T04:16:00,0.4,南南東,0.9,南南東,5.8,94.5,0,0,0,3.5
258,2021-05-03T04:17:00,0.4,南南東,0.9,南南東,5.8,94.7,0,0,0,3.5
259,2021-05-03T04:18:00,0.4,南南東,0.9,南南東,5.9,95,0,0,0,3.5
260,2021-05-03T04:19:00,0.4,南南東,0.9,南南東,5.9,95.1,0,0,0,3.5
261,2021-05-03T04:20:00,0.4,南南東,0.9,南南東,6,95.1,0,0,0,3.5
262,2021-05-03T04:21:00,0.3,南南東,0.9,南南東,6,95.2,0,0,0,3.5
263,2021-05-03T04:22:00,0.3,南,0.9,南南東,6.1,95.1,0,0,0,3.5
264,2021-05-03T04:23:00,0.3,南,0.9,南南東,6,95.2,0,0,0,3.5
265,2021-05-03T04:24:00,0.2,静穏,0.9,南南東,6,95,0,0,0,3.5
266,2021-05-03T04:25:00,0.2,静穏,0.9,南南東,6.1,95.1,0,0,0,3.5
267,2021-05-03T04:26:00,0.2,静穏,0.7,南南東,6.1,95.2,0,0,0,3.5
268,2021-05-03T04:27:00,0.1,静穏,0.6,南南東,6,94.9,0,0,0,3.5
269,2021-05-03T04:28:00,0.1,静穏,0.5,南南東,5.9,94.5,0,0,0,3.5
270,2021-05-03T04:29:00,0.1,静穏,0.6,東北東,6,94.6,0,0,0,3.5
271,2021-05-03T04:30:00,0.1,静穏,0.7,東北東,6.1,95.1,0,0,0,3.5
272,2021-05-03T04:31:00,0.2,静穏,0.7,東北東,6,95.1,0,0,0,3.5
273,2021-05-03T04:32:00,0.1,静穏,0.7,東北東,6.1,95,0,0,0,3.5
274,2021-05-03T04:33:00,0.2,静穏,0.7,東北東,6,95,0,0,0,3.5
275,2021-05-03T04:34:00,0.2,静穏,0.7,東北東,5.9,94.6,0,0,0,3.5
276,2021-05-03T04:35:00,0.1,静穏,0.7,東北東,5.7,94.2,0,0,0,3.5
277,2021-05-03T04:36:00,0.1,静穏,0.7,東北東,5.7,93.7,0,0,0,3.5
278,2021-05-03T04:37:00,0.2,静穏,0.7,東北東,5.8,94.3,0,0,0,3.5
279,2021-05-03T04:38:00,0.2,静穏,0.7,東北東,5.9,94.9,0,0,0,3.5
280,2021-05-03T04:39:00,0.2,静穏,0.7,東北東,5.9,95.1,0,0,0,3.5
281,2021-05-03T04:40:00,0.1,静穏,0.5,北東,5.8,94.9,0,0,0,3.5
282,2021-05-03T04:41:00,0.1,静穏,0.4,東南東,5.8,94.6,0,0,0,3.5
283,2021-05-03T04:42:00,0.1,静穏,0.5,東,5.7,94.6,0,0,0,3.5
284,2021-05-03T04:43:00,0.1,静穏,0.7,東,5.6,94.2,0,0,0,3.5
285,2021-05-03T04:44:00,0.2,静穏,0.7,東,5.6,94.2,0,0,0,3.5
286,2021-05-03T04:45:00,0.3,東,0.7,東,5.6,94.3,0,0,0,3.5
287,2021-05-03T04:46:00,0.3,東,0.7,東,5.6,94.4,0,0,0,3.5
288,2021-05-03T04:47:00,0.3,東南東,0.7,東,5.5,94.2,0,0,0,3.5
289,2021-05-03T04:48:00,0.2,静穏,0.7,東,5.6,94.3,0,0,0,3.5
290,2021-05-03T04:49:00,0.2,静穏,0.7,東,5.5,94.5,0,0,0,3.5
291,2021-05-03T04:50:00,0.3,東南東,0.7,東,5.4,94.1,0,0,0,3.5
292,2021-05-03T04:51:00,0.3,南東,0.7,東,5.4,94.1,0,0,0,3.5
293,2021-05-03T04:52:00,0.3,南東,0.7,東,5.4,94.6,0,0,0,3.5
294,2021-05-03T04:53:00,0.3,南東,0.8,東,5.5,94.7,0,0,0,3.5
295,2021-05-03T04:54:00,0.3,南東,1,東南東,5.5,95,0,0,0,3.5
296,2021-05-03T04:55:00,0.3,南東,1,東南東,5.5,94.7,0,0,0,3.5
297,2021-05-03T04:56:00,0.4,南東,1,東南東,5.5,94.7,0,0,0,3.5
298,2021-05-03T04:57:00,0.4,東南東,1,東南東,5.5,94.9,0,0,0,3.5
299,2021-05-03T04:58:00,0.4,東南東,1,東南東,5.6,94.8,0,0,0,3.5
300,2021-05-03T04:59:00,0.5,東南東,1,東南東,5.7,95,0,0,0,3.5
301,2021-05-03T05:00:00,0.5,東南東,1,東南東,5.7,95.2,0,0,0,3.5
302,2021-05-03T05:01:00,0.5,東,1,東南東,5.6,94.8,0,0,0,3.5
303,2021-05-03T05:02:00,0.6,東,1,東南東,5.7,95.1,0,0,0,3.5
304,2021-05-03T05:03:00,0.6,東,1,東南東,5.6,94.9,0,0,0,3.5
305,2021-05-03T05:04:00,0.6,東南東,1.1,南南西,5.6,94.6,0,0,0,3.5
306,2021-05-03T05:05:00,0.5,東南東,1.1,南南西,5.4,94.3,0,0,0,3.5
307,2021-05-03T05:06:00,0.5,東南東,1.1,南南西,5.4,93.9,0,0,0,3.5
308,2021-05-03T05:07:00,0.5,南東,1.1,南南西,5.5,94.2,0,0,0,3.5
309,2021-05-03T05:08:00,0.5,南東,1.1,南南西,5.4,94.4,0,0,0,3.5
310,2021-05-03T05:09:00,0.5,南東,1.1,南南西,5.6,94.7,0,0,0,3.5
311,2021-05-03T05:10:00,0.5,南南東,1.1,南南西,5.6,95,0,0,0,3.5
312,2021-05-03T05:11:00,0.4,南南東,1.1,南南西,5.5,94.7,0,0,0,3.5
313,2021-05-03T05:12:00,0.4,南南東,1.1,南南西,5.5,94.8,0,0,0,3.5
314,2021-05-03T05:13:00,0.4,南南東,1.1,南南西,5.5,94.3,0,0,0,3.5
315,2021-05-03T05:14:00,0.4,南南東,1,東南東,5.5,94.7,0,0,0,3.5
316,2021-05-03T05:15:00,0.4,南南東,1,東南東,5.6,94.8,0,0,0,3.5
317,2021-05-03T05:16:00,0.4,南南東,1,東南東,5.5,94.8,0,0,0,3.5
318,2021-05-03T05:17:00,0.4,南東,1,東南東,5.4,94.3,0,0,0,3.5
319,2021-05-03T05:18:00,0.4,南東,1,東南東,5.5,94.5,0,0,0,3.5
320,2021-05-03T05:19:00,0.4,南東,1,東南東,5.4,94.4,0,0,0,3.5
321,2021-05-03T05:20:00,0.5,東南東,1,東南東,5.4,94.3,0,0,0,3.5
322,2021-05-03T05:21:00,0.5,東南東,1,東南東,5.4,94.5,0,0,0,3.5
323,2021-05-03T05:22:00,0.6,東南東,1.4,東,5.5,94.5,0,0,0,3.5
324,2021-05-03T05:23:00,0.6,東南東,1.8,東,5.4,94.4,0,0,0,3.5
325,2021-05-03T05:24:00,0.7,東南東,1.8,東,5.3,94.2,0,0,0,3.5
326,2021-05-03T05:25:00,0.8,東南東,1.8,東,5.4,94.3,0,0,0,3.5
327,2021-05-03T05:26:00,0.9,東,1.8,東,5.4,94.6,0,0,0,3.5
328,2021-05-03T05:27:00,1,東,1.9,東,5.5,94.6,0,0,0,3.5
329,2021-05-03T05:28:00,1,東,1.9,東,5.5,94.6,0,0,0,3.5
330,2021-05-03T05:29:00,1.1,東,1.9,東,5.6,94.8,0,0,0,3.5
331,2021-05-03T05:30:00,1,東,1.9,東,5.6,95.1,0,0,0,3.5
332,2021-05-03T05:31:00,1,東,1.9,東,5.9,95.2,0,0,0,3.5
333,2021-05-03T05:32:00,0.9,東,1.9,東,5.7,95.2,0,0,0,3.5
334,2021-05-03T05:33:00,0.8,東,1.9,東,5.6,94.7,0,0,0,3.5
335,2021-05-03T05:34:00,0.7,東北東,1.9,東,5.6,94.2,0,0,0,3.5
336,2021-05-03T05:35:00,0.6,東北東,1.9,東,5.6,94.3,0,0,0,3.5
337,2021-05-03T05:36:00,0.5,東北東,1.9,東,5.7,94.6,0,0,0,3.5
338,2021-05-03T05:37:00,0.4,東北東,1.1,東,5.6,94.5,0,0,0,3.5
339,2021-05-03T05:38:00,0.4,東北東,1.1,東,5.6,94.1,0,0,0,3.5
340,2021-05-03T05:39:00,0.3,東北東,1.1,東,5.6,94.4,0,0,0,3.5
341,2021-05-03T05:40:00,0.3,東北東,1.1,東,5.5,94,0,0,0,3.5
342,2021-05-03T05:41:00,0.3,東北東,0.8,東北東,5.6,94.3,0,0,0,3.5
343,2021-05-03T05:42:00,0.3,東北東,0.8,東北東,5.6,94.5,0,0,0,3.5
344,2021-05-03T05:43:00,0.3,東北東,0.8,東北東,5.6,94.3,0,0,0,3.5
345,2021-05-03T05:44:00,0.3,東北東,0.8,東北東,5.7,94.6,0,0,0,3.5
346,2021-05-03T05:45:00,0.3,東北東,0.8,東北東,5.7,94.5,0,0,0,3.5
347,2021-05-03T05:46:00,0.3,東,0.8,東南東,5.6,94.3,0,0,0,3.5
348,2021-05-03T05:47:00,0.3,東,0.8,東南東,5.7,94.5,0,0,0,3.5
349,2021-05-03T05:48:00,0.3,東,1.6,東南東,5.6,94.2,0,0,0,3.5
350,2021-05-03T05:49:00,0.4,東,1.6,東南東,5.6,94,0,0,0,3.5
351,2021-05-03T05:50:00,0.4,東,1.6,東南東,5.7,94.5,0,0,0,3.5
352,2021-05-03T05:51:00,0.5,東,1.6,東南東,5.7,94.2,0,0,0,3.5
353,2021-05-03T05:52:00,0.5,東,1.6,東南東,5.8,94.6,0,0,0,3.5
354,2021-05-03T05:53:00,0.5,東,1.6,東南東,5.7,94.5,0,0,0,3.5
355,2021-05-03T05:54:00,0.5,東南東,1.6,東南東,5.7,94.2,0,0,0,3.5
356,2021-05-03T05:55:00,0.5,東南東,1.6,東南東,5.8,94.5,0,0,0,3.5
357,2021-05-03T05:56:00,0.5,東南東,1.6,東南東,5.9,94.8,0,0,0,3.5
358,2021-05-03T05:57:00,0.5,東南東,1.6,東南東,5.9,94.8,0,0,0,3.5
359,2021-05-03T05:58:00,0.5,東南東,1.4,東,5.6,93.9,0,0,0,3.5
360,2021-05-03T05:59:00,0.4,東南東,1.1,東,5.6,93.5,0,0,0,3.5
361,2021-05-03T06:00:00,0.4,東南東,1,東南東,5.7,94.1,0,0,0,3.5
362,2021-05-03T06:01:00,0.4,東南東,1,東南東,5.7,94,0,0,0,3.5
363,2021-05-03T06:02:00,0.4,東南東,1,東南東,5.8,94.4,0,0,0,3.5
364,2021-05-03T06:03:00,0.4,東南東,1,東南東,5.9,94.5,0,0,0,3.5
365,2021-05-03T06:04:00,0.4,南東,1,東南東,5.8,94.5,0,0,0,3.5
366,2021-05-03T06:05:00,0.3,南東,1,東南東,5.9,94.5,0,0,0,3.5
367,2021-05-03T06:06:00,0.3,南東,1,東南東,6.1,95,0,0,0,3.5
368,2021-05-03T06:07:00,0.3,東南東,1,東南東,6.2,95.2,0,0,0,3.5
369,2021-05-03T06:08:00,0.3,東,1,東南東,6.3,95.2,0,0,0,3.5
370,2021-05-03T06:09:00,0.3,東,1,東南東,6.3,95,0,0,0,3.5
371,2021-05-03T06:10:00,0.2,静穏,0.6,東,6.4,95.1,0,0,0,3.5
372,2021-05-03T06:11:00,0.2,静穏,0.6,東,6.5,95,0,0,0,3.5
373,2021-05-03T06:12:00,0.2,静穏,0.4,北東,6.5,94.9,0,0,0,3.5
374,2021-05-03T06:13:00,0.2,静穏,0.4,北東,6.4,94.5,0,0,0,3.5
375,2021-05-03T06:14:00,0.2,静穏,0.4,北東,6.6,94.4,0,0,0,3.5
376,2021-05-03T06:15:00,0.1,静穏,0.4,北東,6.5,94.5,0,0,0,3.5
377,2021-05-03T06:16:00,0.1,静穏,0.4,北東,6.6,94.4,0,0,0,3.5
378,2021-05-03T06:17:00,0.1,静穏,0.4,北東,6.8,94.7,0,0,0,3.5
379,2021-05-03T06:18:00,0.1,静穏,0.3,北北東,6.8,94.8,0,0,0,3.5
380,2021-05-03T06:19:00,0.1,静穏,0.4,北北東,6.8,94.5,0,0,0,3.5
381,2021-05-03T06:20:00,0.1,静穏,0.7,北北東,6.9,94.1,0,0,0,3.5
382,2021-05-03T06:21:00,0.1,静穏,0.7,北北東,6.9,94.1,0,0,0,3.5
383,2021-05-03T06:22:00,0.2,静穏,0.7,北北東,7,93.8,0,0,0,3.5
384,2021-05-03T06:23:00,0.2,静穏,0.7,北北東,7.1,94,0,0,0,3.5
385,2021-05-03T06:24:00,0.2,静穏,0.7,北北東,7,93.6,0,0,0,3.5
386,2021-05-03T06:25:00,0.3,北北東,0.7,北北東,6.8,92.8,0,0,0,3.5
387,2021-05-03T06:26:00,0.3,北北東,0.7,北北東,7.1,92.9,0,0,0,3.5
388,2021-05-03T06:27:00,0.3,北東,0.7,北北東,7.2,93.5,0,0,0,3.5
389,2021-05-03T06:28:00,0.3,北東,0.7,北北東,7.1,93.1,0,0,0,3.5
390,2021-05-03T06:29:00,0.3,北東,0.8,東南東,7.2,92.8,0,0,0,3.5
391,2021-05-03T06:30:00,0.3,東北東,0.8,東南東,7.4,93.3,0,0,0,3.5
392,2021-05-03T06:31:00,0.3,東北東,0.8,東南東,7.4,93.1,0,0,0,3.5
393,2021-05-03T06:32:00,0.3,東,1,南南東,7.5,92.6,0,0,0,3.5
394,2021-05-03T06:33:00,0.3,東,1,南南東,7.4,92.3,0,0,0,3.5
395,2021-05-03T06:34:00,0.4,東南東,1,南南東,7.3,91.6,0,0,0,3.5
396,2021-05-03T06:35:00,0.3,南東,1,南南東,7.5,91.5,0,0,0,3.5
397,2021-05-03T06:36:00,0.3,南東,1,南南東,7.6,92.4,0,0,0,3.5
398,2021-05-03T06:37:00,0.3,南南東,1,南南東,7.6,92.1,0,0,0,3.5
399,2021-05-03T06:38:00,0.4,南南東,1,南南東,7.6,91.5,0,0,0,3.5
400,2021-05-03T06:39:00,0.3,南,1,南南東,7.6,90.9,0,0,0,3.5
401,2021-05-03T06:40:00,0.4,南,1.1,南南東,7.7,91.4,0,0,0,3.5
402,2021-05-03T06:41:00,0.4,南,1.1,南南東,7.6,90.8,0,0,0,3.5
403,2021-05-03T06:42:00,0.4,南南西,1.1,南南東,7.7,90.2,0,0,0,3.5
404,2021-05-03T06:43:00,0.4,南南西,1.3,南南西,7.8,90.7,0,0,0,3.5
405,2021-05-03T06:44:00,0.5,南南西,1.5,南南西,7.8,90.5,0,0,0,3.5
406,2021-05-03T06:45:00,0.5,南,1.5,南南西,7.9,90.5,0,0,0,3.5
407,2021-05-03T06:46:00,0.6,南,1.7,南西,7.9,90,0,0,0,3.5
408,2021-05-03T06:47:00,0.6,南南西,1.7,南西,7.9,89.1,0,0,0,3.5
409,2021-05-03T06:48:00,0.7,南,1.7,南西,8,89.4,0,0,0,3.5
410,2021-05-03T06:49:00,0.7,南南西,1.7,南西,7.8,89,0,0,0,3.5
411,2021-05-03T06:50:00,0.7,南南西,1.7,南西,7.9,88.7,0,0,0,3.5
412,2021-05-03T06:51:00,0.7,南南西,1.7,南西,7.9,89.1,0,0,0,3.5
413,2021-05-03T06:52:00,0.7,南南西,1.7,南西,8,88.6,0,0,0,3.5
414,2021-05-03T06:53:00,0.8,南南西,1.7,南西,8,89,0,0,0,3.5
415,2021-05-03T06:54:00,0.7,南南西,1.7,南西,8,88.7,0,0,0,3.5
416,2021-05-03T06:55:00,0.7,南南西,1.7,南西,8.2,88.4,0,0,0,3.5
417,2021-05-03T06:56:00,0.7,南,1.6,南南西,8.3,88.7,0,0,0,3.5
418,2021-05-03T06:57:00,0.8,南,2.1,南南東,8.5,89.1,0,0,0,3.5
419,2021-05-03T06:58:00,0.8,南,2.1,南南東,8.7,89.3,0,0,0,3.5
420,2021-05-03T06:59:00,0.8,南,2.1,南南東,8.8,88.9,0,0,0,3.5
421,2021-05-03T07:00:00,0.7,南,2.1,南南東,8.7,88.1,0,0,0,3.5
422,2021-05-03T07:01:00,0.7,南南東,2.1,南南東,8.6,86.6,0,0,0,3.5